Presure
155 139 185 95 96 188 193 96 127 107 91 99 93 107 175 175 122 170 177 166 173 170 114 121 156 183 196 173 208 140 228 194 182 185 217 211 238 241 231 228 222 216 205 184 169
174 163 126 171 140 160 126 129 179 91 184 88 179 183 181 167 171 174 163 151 112 107 158 183 208 208 188 179 209 192 246 254 201 224 176 235 204 206 160 243 249 237 237 234 230
178 169 163 176 159 191 168 138 148 175 186 178 169 172 170 172 165 131 119 110 170 176 181 153 187 140 184 138 181 246 231 264 222 280 256 243 205 146 189 239 164 261 244 252 251
158 152 152 153 152 136 192 141 169 180 184 172 175 174 169 125 123 111 166 182 173 197 177 194 155 171 170 174 259 220 167 208 142 211 219 250 207 206 176 194 198 221 201 179 177
178 177 146 139 135 128 146 176 182 164 183 171 169 136 120 115 132 112 151 172 125 162 172 180 196 166 158 211 193 210 155 218 196 189 144 155 196 189 198 178 134 178 174 194 229
147 162 190 84 94 160 149 123 184 166 177 182 122 127 114 111 124 156 166 163 148 169 187 184 216 203 237 209 187 177 183 167 181 194 165 186 189 142 134 193 189 154 180 214 139
116 122 118 87 155 192 188 190 178 133 175 132 119 124 116 118 119 163 147 121 157 188 162 153 219 226 231 185 224 207 199 168 170 182 203 159 183 179 150 168 201 167 151 195 162
127 158 172 171 168 183 156 181 183 134 164 128 124 124 131 135 175 131 106 186 170 189 158 206 207 185 217 210 214 202 194 188 177 152 194 184 169 210 171 171 166 166 194 169 158
137 148 153 160 170 168 176 186 174 133 156 161 167 137 163 175 160 134 174 171 167 167 162 193 160 206 201 197 206 202 198 185 180 192 180 195 189 160 179 190 181 156 174 172 188
141 169 168 162 165 183 175 156 149 171 154 168 144 147 171 154 128 123 163 171 178 180 184 167 197 186 180 201 191 188 169 194 164 194 181 169 187 177 188 181 176 152 193 178 191
168 163 125 108 154 183 178 182 149 159 159 152 139 111 166 158 132 165 157 182 183 190 186 180 153 193 204 185 197 191 195 177 173 178 179 170 186 188 183 173 171 176 177 171 194
162 172 119 155 165 167 186 180 178 178 176 146 128 126 119 140 158 142 90 149 157 155 175 180 173 184 192 191 168 176 106 188 177 185 179 180 187 184 174 182 164 178 168 179 186
173 119 159 164 154 171 185 173 183 174 135 122 123 127 164 156 156 148 153 158 153 151 152 178 170 191 180 184 174 172 181 168 169 182 190 175 175 156 167 160 163 179 180 163 207
145 167 167 177 178 174 183 181 169 177 134 129 131 168 167 132 160 158 153 152 148 152 152 160 157 179 185 167 181 159 130 176 177 181 176 180 165 161 179 177 175 173 175 176 186
160 169 168 180 176 184 177 173 176 152 138 162 147 163 141 156 159 159 152 147 154 157 153 166 161 161 176 175 184 184 122 178 185 180 178 170 166 157 170 165 166 176 178 161 177
157 149 159 161 156 177 171 162 163 147 142 135 156 148 139 158 158 159 153 152 143 149 146 159 152 150 163 161 170 150 186 180 180 170 174 174 172 169 165 158 171 169 179 192 189
137 155 157 159 157 183 172 160 153 150 150 168 143 164 152 155 158 159 149 142 135 149 141 157 143 155 152 172 155 157 185 155 184 167 173 159 165 157 166 160 171 170 185 172 181
175 164 157 157 174 173 150 170 147 162 163 147 154 152 161 158 157 152 154 140 133 138 157 151 143 161 151 171 148 158 186 173 185 156 161 166 152 171 149 158 161 170 187 188 198
151 166 157 160 155 150 148 148 151 159 165 152 159 156 157 158 158 129 160 133 136 147 157 154 150 160 158 151 166 157 186 164 185 181 151 171 158 172 154 155 177 165 172 178 191
167 168 164 160 159 142 157 184 172 166 152 159 132 157 153 165 85 151 161 156 143 137 136 152 139 153 151 157 163 165 166 182 173 166 175 158 154 171 156 160 162 170 176 178 242
158 128 126 168 118 145 165 157 169 163 156 154 164 154 157 159 83 148 142 157 148 146 152 152 142 151 143 157 151 159 161 173 156 166 168 176 156 172 156 154 171 174 166 186 227
101 156 92 166 163 165 162 186 158 153 167 154 170 160 157 151 163 149 160 156 149 143 153 148 136 148 139 149 150 158 173 164 149 165 177 168 149 161 169 165 161 178 191 232 199
175 165 170 170 163 156 173 159 149 162 163 166 152 163 159 154 130 145 161 159 147 141 147 148 131 145 148 146 150 151 163 173 144 169 169 171 162 173 142 167 159 165 182 211 181
160 168 178 170 166 152 175 163 156 172 173 159 171 160 169 158 153 159 155 154 147 126 156 150 129 146 147 143 146 151 151 166 164 174 174 162 170 178 163 149 172 163 227 229 217
154 159 159 180 175 171 164 174 158 167 166 153 169 164 161 156 132 165 160 160 137 129 145 145 132 143 145 153 145 149 159 166 161 168 176 154 140 177 167 159 174 167 187 216 233
157 153 155 166 156 157 177 158 166 147 157 154 157 162 166 133 125 164 161 138 133 123 142 141 132 143 150 147 151 142 157 163 179 181 178 151 160 168 176 156 170 185 195 235 208
161 152 155 171 162 155 159 184 164 163 161 154 159 157 150 127 151 145 149 158 139 145 155 154 138 155 136 145 149 145 151 167 174 175 154 159 159 174 164 164 170 213 201 211 201
Wind_Speed
16 18 16 17 17 15 16 20 19 20 17 21 24 24 14 15 32 22 22 26 29 33 42 45 36 36 34 35 32 42 28 37 37 38 29 30 25 25 29 33 38 41 47 58 65
17 16 17 14 16 16 16 18 12 19 8 23 9 9 11 18 18 20 25 27 41 45 39 38 29 29 38 36 31 35 21 12 26 23 42 19 28 31 49 25 27 31 35 39 43
19 18 14 16 13 9 11 15 14 10 7 9 13 13 15 17 20 25 34 39 31 33 36 41 38 43 38 46 38 15 8 24 19 20 14 13 28 47 41 17 47 29 29 34 38
21 18 18 17 16 13 8 15 11 8 8 12 10 13 15 25 27 36 26 27 31 30 36 33 44 45 45 47 22 10 44 22 42 8 26 24 13 12 45 12 13 38 21 38 40
23 18 19 17 16 16 14 11 7 13 8 13 14 20 26 30 29 37 30 26 42 36 39 37 30 44 54 7 22 1 26 18 4 14 42 28 14 12 36 27 47 35 45 38 45
21 19 16 19 19 14 16 20 10 13 12 7 24 24 29 33 31 27 27 30 38 36 32 32 34 27 33 32 39 25 24 48 33 17 49 27 40 32 42 43 28 40 37 51 63
29 19 18 25 16 9 11 11 8 21 9 24 27 29 31 33 35 24 34 43 34 27 39 43 43 47 36 28 40 1 12 39 41 28 35 51 32 33 60 45 49 46 54 49 64
27 18 17 16 13 9 14 9 9 23 15 26 29 33 34 34 20 32 44 26 30 28 35 40 42 37 49 42 37 32 18 29 32 53 42 35 36 58 47 43 58 53 50 61 71
27 22 22 16 13 13 8 9 11 25 15 15 12 28 20 17 24 34 28 28 29 30 33 40 38 48 49 48 50 47 46 37 27 50 29 50 48 57 37 52 40 69 39 59 55
25 24 20 18 15 8 9 18 20 13 18 11 22 24 14 25 33 41 26 30 32 35 38 37 53 48 47 52 48 48 46 47 38 51 48 33 54 49 63 49 45 64 79 58 91
26 26 25 29 21 10 10 9 21 17 16 19 25 31 15 23 40 25 30 36 39 43 44 45 38 54 52 50 52 50 51 43 43 48 53 51 64 66 64 53 45 70 70 58 94
29 28 27 21 15 18 9 11 10 7 6 21 28 34 37 33 25 43 43 35 36 36 47 53 50 56 57 51 48 46 47 50 50 56 59 63 66 67 62 73 45 83 64 84 104
31 28 25 20 24 19 12 12 7 10 24 29 32 36 13 24 27 31 32 33 37 39 41 57 54 57 52 54 49 52 56 54 56 59 58 60 69 63 68 58 61 92 96 61 108
31 26 24 17 15 18 13 11 13 8 30 31 33 13 14 37 23 28 34 36 40 42 46 51 52 63 60 53 58 54 54 60 63 62 65 68 67 69 85 86 92 90 96 91 115
31 28 24 17 16 17 16 14 11 23 30 17 27 16 36 25 24 28 33 37 41 48 51 56 54 59 65 69 65 64 61 64 64 65 68 71 74 71 85 84 87 97 106 69 106
34 32 27 21 26 20 20 20 19 27 31 35 23 29 36 25 27 30 32 37 43 49 50 55 54 56 69 66 69 59 62 64 64 67 71 74 80 84 87 81 96 96 105 117 112
35 34 29 26 27 21 24 23 25 26 27 14 33 17 28 27 29 30 34 39 45 49 49 55 54 60 63 70 60 64 67 66 67 67 73 77 83 84 89 84 100 100 120 103 124
34 34 31 29 24 23 29 24 30 22 19 31 28 28 24 29 30 32 34 40 46 48 54 55 56 62 62 74 69 69 74 74 73 72 76 83 81 89 82 90 93 104 111 128 130
40 36 34 30 30 31 31 29 29 25 21 29 24 26 27 29 31 37 36 45 46 49 54 55 57 63 69 67 81 75 74 74 76 76 77 84 84 95 89 91 113 99 109 126 137
40 38 35 32 31 26 28 25 22 23 30 25 32 26 30 28 33 37 35 37 42 50 52 56 55 65 67 76 81 86 87 80 85 80 85 87 86 97 95 98 101 117 121 128 126
40 33 31 34 28 30 27 27 24 25 27 29 26 31 31 30 31 37 41 38 39 46 51 56 58 67 63 78 78 88 89 90 81 90 89 92 90 105 100 98 114 124 112 136 121
30 40 28 36 32 31 29 27 28 31 26 30 24 28 32 32 33 39 37 37 40 47 49 54 57 67 59 75 77 92 90 90 80 90 94 96 92 102 111 111 110 133 138 120 138
42 40 40 39 34 32 30 31 31 30 29 28 32 32 34 34 35 40 36 41 39 48 52 54 57 67 71 73 82 88 92 89 82 97 97 101 102 108 87 117 112 112 140 128 132
42 42 41 39 36 32 32 32 31 29 31 31 32 33 34 36 37 36 42 37 41 53 55 54 55 66 70 69 75 86 85 94 95 95 96 99 107 108 108 97 127 118 122 126 128
48 41 38 42 38 34 34 33 31 31 31 33 31 33 36 37 45 41 41 43 47 52 53 57 58 65 71 81 76 84 96 97 99 95 96 97 92 108 114 113 130 122 141 129 136
48 44 40 37 35 34 34 34 34 33 32 34 34 34 37 39 44 44 46 44 51 55 55 57 60 69 74 78 84 80 95 97 92 90 95 100 107 114 118 113 125 141 137 130 134
47 46 42 40 36 36 34 32 33 33 33 35 36 36 36 46 40 39 39 47 48 53 59 62 60 73 68 77 82 83 93 96 97 94 95 100 107 114 116 120 129 124 131 132 133
Wind_Direction
210 215 197 241 246 217 215 255 264 267 280 277 289 293 282 296 294 303 317 310 310 310 299 301 303 310 315 303 300 300 300 297 298 293 287 288 284 284 281 281 281 280 276 272 272
199 224 235 218 243 239 256 258 263 286 251 300 271 279 295 290 303 313 314 304 296 297 314 320 327 324 316 311 302 307 325 315 292 318 291 295 290 294 290 296 294 285 282 281 280
194 220 231 232 238 246 247 260 271 255 241 263 274 276 293 304 311 301 299 298 315 319 324 311 322 301 321 303 317 42 310 41 341 37 18 343 288 292 291 333 286 320 308 303 296
217 222 228 232 235 248 207 261 253 248 239 266 272 285 299 298 299 294 313 329 321 331 327 323 316 321 320 319 33 349 315 354 309 327 28 13 44 8 295 305 1 8 306 286 282
209 217 231 238 239 254 256 270 244 270 252 271 280 291 293 294 303 300 316 326 307 321 331 329 329 321 319 323 309 41 295 13 247 274 323 323 304 349 1 277 301 273 275 295 318
212 224 204 280 283 251 257 282 233 264 261 263 288 289 290 292 303 317 323 325 321 332 329 334 11 359 25 357 335 278 285 326 293 226 311 337 331 292 313 332 316 298 295 337 291
225 224 237 276 252 228 241 242 260 273 261 280 287 290 291 298 303 322 320 310 324 337 324 323 20 25 19 14 26 237 324 300 301 264 354 304 301 275 309 286 342 272 306 325 279
225 216 222 232 243 239 254 240 237 267 269 283 287 292 296 302 343 314 309 346 337 348 321 11 14 17 24 19 21 13 341 325 312 315 349 305 273 349 267 299 307 284 326 317 282
225 232 240 233 245 244 234 228 239 268 278 286 297 294 321 356 327 314 346 337 335 331 328 9 326 16 18 16 19 15 8 351 323 2 310 351 341 298 317 345 329 281 296 310 329
225 216 229 233 240 233 235 252 261 253 277 296 290 301 347 315 309 310 338 345 353 351 2 351 21 11 4 14 14 12 358 359 315 355 349 314 337 341 345 335 322 307 344 305 339
211 225 235 251 244 229 233 218 264 269 278 288 291 290 331 326 306 340 328 2 4 10 7 7 332 15 15 13 13 10 6 350 341 347 348 336 345 346 345 337 334 347 334 346 337
220 220 240 242 246 246 226 224 240 249 264 283 293 298 299 309 331 315 333 328 343 335 6 8 1 12 14 12 356 358 332 359 347 352 349 347 344 344 346 344 323 343 340 331 342
215 237 233 233 247 248 221 243 214 250 277 285 292 296 329 322 326 327 323 338 333 337 344 8 2 8 9 11 2 1 4 349 352 351 345 350 346 338 343 335 340 343 343 333 334
231 227 233 228 233 244 218 226 248 226 281 288 291 318 328 314 330 327 325 332 330 339 345 357 357 9 8 360 5 351 341 358 354 351 348 351 347 342 344 343 343 342 343 338 339
225 223 233 229 233 209 224 241 242 272 281 295 296 315 306 321 326 327 322 322 339 346 347 0 359 0 4 3 4 1 320 359 356 353 350 347 347 340 345 345 343 341 343 334 344
226 235 234 232 245 227 240 256 264 274 282 286 303 305 303 323 323 323 326 331 329 338 341 354 350 352 1 358 1 344 354 359 354 350 351 349 347 348 344 343 342 342 343 338 340
233 230 232 233 242 216 236 263 272 271 285 288 298 311 309 315 322 326 323 321 321 339 336 351 344 353 354 357 350 352 356 343 355 350 350 344 347 343 343 340 342 344 340 348 343
216 224 230 235 239 233 260 248 275 272 279 291 302 306 307 317 321 322 328 320 324 328 348 344 342 353 356 359 347 350 355 352 351 343 347 347 339 343 337 339 344 346 339 339 339
229 224 230 234 239 250 259 268 275 279 275 293 296 304 311 313 317 326 327 317 321 334 349 346 344 351 355 352 355 352 354 350 351 349 339 347 341 344 339 340 339 347 345 344 341
221 225 230 234 240 256 254 236 243 260 286 285 297 301 307 306 338 320 325 330 326 325 326 344 337 347 353 353 354 354 353 351 351 349 350 342 339 344 341 341 344 344 343 342 344
223 239 246 234 262 252 251 258 248 261 276 287 279 297 300 303 338 316 316 327 328 329 344 345 339 345 350 352 351 352 350 351 346 348 347 348 340 346 340 343 341 341 348 340 344
250 229 269 234 236 242 248 239 259 267 259 280 274 284 295 306 302 313 315 323 328 327 345 341 337 343 345 351 348 349 349 350 339 347 345 345 340 344 342 341 346 339 339 349 341
221 227 231 235 238 244 244 253 267 260 266 269 285 282 288 300 315 312 321 323 325 326 337 340 336 343 346 349 348 347 348 346 337 349 347 345 343 343 344 340 346 348 342 342 349
221 224 229 233 236 245 242 252 264 262 266 277 274 285 287 296 304 304 316 321 325 326 337 338 334 341 343 345 346 345 343 346 347 346 346 345 343 341 341 346 340 349 347 348 345
224 226 229 230 236 244 246 248 261 263 269 281 278 283 292 298 305 311 321 322 324 326 333 336 334 341 342 341 343 343 344 345 346 346 345 341 343 339 340 342 341 345 341 348 355
223 227 230 232 237 243 246 252 258 266 271 280 284 291 291 297 302 309 315 319 321 323 330 333 333 338 340 342 341 342 344 345 344 343 343 341 343 342 338 343 342 342 346 353 345
221 226 229 233 236 243 249 254 258 264 270 279 284 290 295 294 304 310 315 315 323 325 327 329 336 332 340 340 339 342 343 345 346 344 342 341 343 340 339 341 343 345 347 347 349